AirNav   Air Wisconsin pilot careers
 
 424 users online  

4KS5 Maize Airport
Wichita (Maize), Kansas, USA

GOING TO WICHITA (MAIZE)?


FAA INFORMATION EFFECTIVE 25 APRIL 2019

Location

FAA Identifier: 4KS5
Lat/Long: 37-45-56.0430N / 097-26-09.1630W
37-45.934050N / 097-26.152717W
37.7655675 / -97.4358786
(estimated)
Elevation: 1336 ft. / 407 m (estimated)
Variation: 07E (1985)
From city: 2 miles SE of central business district of the associated city
Time zone: UTC -5 (UTC -6 during Standard Time)
Zip code: 67205

Airport Operations

Airport use: Private use. Permission required prior to landing
Activation date: 04/1961
Control tower: no
ARTCC: KANSAS CITY CENTER
FSS: WICHITA FLIGHT SERVICE STATION
Attendance: UNATNDD
Wind indicator: yes
Segmented circle: no

Airport Communications

WX ASOS at ICT (7 nm S): PHONE 316-945-8022
WX ASOS at AAO (10 nm E): 134.025 (316-636-2541)
WX AWOS-3PT at BEC (11 nm E): 119.45 (316-515-7116)
WX AWOS-3 at 1K1 (15 nm E): 118.3 (316-530-6004)
WX AWOS-3PT at 3AU (18 nm E): 124.175 (316-733-6696)
WX AWOS-3PT at EWK (19 nm NE): 123.875 (316-283-8789)

Nearby radio navigation aids

VOR radial/distance  VOR name  Freq  Var
ICTr073/7.1WICHITA VORTAC113.8007E
HUTr116/27.4HUTCHINSON VOR/DME116.8004E

 
NDB name  Hdg/Dist  Freq  Var  ID
PICHE001/11.333204EIC .. -.-.
NEWTON197/19.528106EEWK . .-- -.-

Airport Services

Parking: tiedowns
Airframe service: NONE
Powerplant service: NONE
Bottled oxygen: NONE
Bulk oxygen: NONE

Runway Information

Runway 17/35

Dimensions: 2100 x 70 ft. / 640 x 21 m
Surface: turf, in poor condition
TURF-GRASS NOT MAINTAINED
RUNWAY 17  RUNWAY 35
Traffic pattern: leftleft
Markings: nonenone
Runway end identifier lights: nono
Obstructions: 15 ft. road, 50 ft. from runway, 3:1 slope to clear22 ft. road, 300 ft. from runway, 13:1 slope to clear
CONC RUBBLE AT AER 35.

Airport Ownership and Management from official FAA records

Ownership: Privately-owned
Owner: G. V. RUBALCABA
PO BOX 240
MAIZE, KS 67101-0240
Phone 316-733-2851
Manager: G. V. RUBALCABA
PO BOX 240
MAIZE, KS 67101-0240
Phone 316-733-2851
PHONE AT ARPT 316-722-2690.

Airport Operational Statistics

Aircraft based on the field: 12
Single engine airplanes: 11
Helicopters: 1
    
Aircraft operations: avg 44/week *
78% local general aviation
22% transient general aviation
* for 12-month period ending 29 April 2008

Additional Remarks

DENSE TREES 70 FT LEFT AND RIGHT OF RUNWAY CNTRLN
CONCRETE RUBBLE & DEBRIS DUMPING ALONG RY ENDS & EDGES CAN CHANGE RY USABLE LENGTH & WIDTH.

Instrument Procedures

There are no published instrument procedures at 4KS5.

Some nearby airports with instrument procedures:

KICT - Wichita Dwight D Eisenhower National Airport (7 nm S)
KAAO - Colonel James Jabara Airport (10 nm E)
KCEA - Cessna Aircraft Field Airport (11 nm SE)
KBEC - Beech Factory Airport (11 nm E)
KIAB - Mc Connell Air Force Base (12 nm SE)
1K1 - Lloyd Stearman Field Airport (15 nm E)
3AU - Augusta Municipal Airport (18 nm E)
KEWK - Newton City/County Airport (19 nm NE)
 
Loc | Ops | Rwys | IFR | FBO | Links
Com | Nav | Svcs | Stats | Notes

Kansas City Aviation Department
 
Area around 4KS5 (Maize Airport)
 
Road maps at: MapQuest Bing Google
 
Aerial photo
WARNING: Photo may not be current or correct
Aerial photo of 4KS5 (Maize Airport)
Do you have a better or more recent aerial photo of Maize Airport that you would like to share? If so, please send us your photo.

 
Sectional chart

 
Airport distance calculator
Flying to Maize Airport? Find the distance to fly.

From to 4KS5

Sunrise and sunset
Times for 25-Apr-2019
 Local
(UTC-5)
 Zulu
(UTC)
Morning civil twilight06:1411:14
Sunrise06:4211:42
Sunset20:1301:13
Evening civil twilight20:4101:41

Current date and time
Zulu (UTC)  25-Apr-2019 09:03:59
Local (UTC-5)  25-Apr-2019 04:03:59
 
METAR
KICT 
7nm S 
250853Z 28003KT 8SM FEW180 SCT250 10/08 A2977 RMK AO2 SLP075 T01000083 56016
KAAO 
10nm E 
250854Z AUTO 12004KT 2 1/2SM BR CLR 08/07 A2978 RMK AO2 SLP080 T00780072 55014 TSNO
KBEC 
11nm E 
250855Z AUTO 11004KT 7SM CLR 10/09 A2978 RMK AO2 T01000092
KIAB 
12nm SE 
250856Z AUTO 09005KT 10SM CLR 12/11 A2978 RMK AO2 VIS 2 3/4 RWY01 SLP082 T01160110 55013 $
K1K1 
15nm E 
250855Z AUTO 12004KT 1/2SM FG OVC002 08/08 A2978 RMK AO2 T00830083
K3AU 
18nm E 
250835Z AUTO 00000KT 1 3/4SM BR VV007 08/08 A2979 RMK AO2
KEWK 
18nm NE 
250856Z AUTO 26004KT 9SM CLR 11/10 A2979 RMK AO2 SLP078 T01060100 55013
TAF
KICT 
7nm S 
250725Z 2507/2606 VRB03KT 6SM BR SKC TEMPO 2509/2513 3SM BR FM251400 34011KT P6SM SCT070 FM251800 35020G29KT P6SM BKN040 FM260100 34010KT P6SM SKC
KIAB 
12nm SE 
250200Z 2502/2608 VRB06KT 9999 SKC QNH2979INS BECMG 2509/2510 VRB06KT 8000 BR SCT030 QNH2978INS BECMG 2513/2514 35015KT 9999 NSW SCT050 QNH2981INS BECMG 2517/2518 35015G25KT 9999 SCT050 QNH2989INS BECMG 2601/2602 VRB06KT 9999 SKC QNH3002 TX22/2519Z TN11/2511Z
NOTAMs
Click for the latest NOTAMs
NOTAMs are issued by the DoD/FAA and will open in a separate window not controlled by AirNav.

 

 
 

Would you like to see your business listed on this page?

 If your business provides an interesting product or service to pilots, flight crews, aircraft, or users of the Maize Airport, you should consider listing it here.  To start the listing process, click on the button below
 
Add a business
 

Other Pages about Maize Airport

Update a link
 
Copyright © AirNav, LLC. All rights reserved. Privacy Policy  Contact